Year,Month,Day,Hour,Minute,Value (Times are PST for temperature in C)
2006,10,04,00,00,8.90
2006,10,04,00,01,8.90
2006,10,04,00,02,8.90
2006,10,04,00,03,8.80
2006,10,04,00,04,8.80
2006,10,04,00,05,8.80
2006,10,04,00,06,8.70
2006,10,04,00,07,8.70
2006,10,04,00,08,8.70
2006,10,04,00,09,8.70
2006,10,04,00,10,8.70
2006,10,04,00,11,8.60
2006,10,04,00,12,8.50
2006,10,04,00,13,8.50
2006,10,04,00,14,8.40
2006,10,04,00,15,8.40
2006,10,04,00,16,8.30
2006,10,04,00,17,8.20
2006,10,04,00,18,8.20
2006,10,04,00,19,8.20
2006,10,04,00,20,8.10
2006,10,04,00,21,8.10
2006,10,04,00,22,8.00
2006,10,04,00,23,8.00
2006,10,04,00,24,7.90
2006,10,04,00,25,7.90
2006,10,04,00,26,7.80
2006,10,04,00,27,7.80
2006,10,04,00,28,7.80
2006,10,04,00,29,7.80
2006,10,04,00,30,7.70
2006,10,04,00,31,7.70
2006,10,04,00,32,7.60
2006,10,04,00,33,7.60
2006,10,04,00,34,7.50
2006,10,04,00,35,7.50
2006,10,04,00,36,7.50
2006,10,04,00,37,7.40
2006,10,04,00,38,7.40
2006,10,04,00,39,7.40
2006,10,04,00,40,7.30
2006,10,04,00,41,7.30
2006,10,04,00,42,7.30
2006,10,04,00,43,7.30
2006,10,04,00,44,7.30
2006,10,04,00,45,7.20
2006,10,04,00,46,7.20
2006,10,04,00,47,7.20
2006,10,04,00,48,7.20
2006,10,04,00,49,7.10
2006,10,04,00,50,7.10
2006,10,04,00,51,7.10
2006,10,04,00,52,7.10
2006,10,04,00,53,7.00
2006,10,04,00,54,7.00
2006,10,04,00,55,7.00
2006,10,04,00,56,6.90
2006,10,04,00,57,6.90
2006,10,04,00,58,6.90
2006,10,04,00,59,6.90
2006,10,04,01,00,6.80
2006,10,04,01,01,6.80
2006,10,04,01,02,6.90
2006,10,04,01,03,6.90
2006,10,04,01,04,6.90
2006,10,04,01,05,6.90
2006,10,04,01,06,6.90
2006,10,04,01,07,6.90
2006,10,04,01,08,6.90
2006,10,04,01,09,6.90
2006,10,04,01,10,6.90
2006,10,04,01,11,6.90
2006,10,04,01,12,6.90
2006,10,04,01,13,6.90
2006,10,04,01,14,6.80
2006,10,04,01,15,6.80
2006,10,04,01,16,6.90
2006,10,04,01,17,6.90
2006,10,04,01,18,7.00
2006,10,04,01,19,7.10
2006,10,04,01,20,7.20
2006,10,04,01,21,7.30
2006,10,04,01,22,7.30
2006,10,04,01,23,7.40
2006,10,04,01,24,7.40
2006,10,04,01,25,7.50
2006,10,04,01,26,7.60
2006,10,04,01,27,7.70
2006,10,04,01,28,7.70
2006,10,04,01,29,7.80
2006,10,04,01,30,7.90
2006,10,04,01,31,7.90
2006,10,04,01,32,7.90
2006,10,04,01,33,8.00
2006,10,04,01,34,8.00
2006,10,04,01,35,8.00
2006,10,04,01,36,8.10
2006,10,04,01,37,8.10
2006,10,04,01,38,8.10
2006,10,04,01,39,8.10
2006,10,04,01,40,8.10
2006,10,04,01,41,8.10
2006,10,04,01,42,8.10
2006,10,04,01,43,8.20
2006,10,04,01,44,8.20
2006,10,04,01,45,8.20
2006,10,04,01,46,8.30
2006,10,04,01,47,8.30
2006,10,04,01,48,8.30
2006,10,04,01,49,8.40
2006,10,04,01,50,8.50
2006,10,04,01,51,8.60
2006,10,04,01,52,8.70
2006,10,04,01,53,8.70
2006,10,04,01,54,8.70
2006,10,04,01,55,8.70
2006,10,04,01,56,8.80
2006,10,04,01,57,8.80
2006,10,04,01,58,8.80
2006,10,04,01,59,8.90
2006,10,04,02,00,8.90
2006,10,04,02,01,8.90
2006,10,04,02,02,8.90
2006,10,04,02,03,8.90
2006,10,04,02,04,8.90
2006,10,04,02,05,8.90
2006,10,04,02,06,8.90
2006,10,04,02,07,9.00
2006,10,04,02,08,9.00
2006,10,04,02,09,9.00
2006,10,04,02,10,9.10
2006,10,04,02,11,9.20
2006,10,04,02,12,9.20
2006,10,04,02,13,9.20
2006,10,04,02,14,9.20
2006,10,04,02,15,9.20
2006,10,04,02,16,9.30
2006,10,04,02,17,9.30
2006,10,04,02,18,9.40
2006,10,04,02,19,9.40
2006,10,04,02,20,9.40
2006,10,04,02,21,9.40
2006,10,04,02,22,9.40
2006,10,04,02,23,9.40
2006,10,04,02,24,9.30
2006,10,04,02,25,9.30
2006,10,04,02,26,9.30
2006,10,04,02,27,9.40
2006,10,04,02,28,9.40
2006,10,04,02,29,9.40
2006,10,04,02,30,9.40
2006,10,04,02,31,9.40
2006,10,04,02,32,9.40
2006,10,04,02,33,9.40
2006,10,04,02,34,9.40
2006,10,04,02,35,9.40
2006,10,04,02,36,9.40
2006,10,04,02,37,9.40
2006,10,04,02,38,9.40
2006,10,04,02,39,9.40
2006,10,04,02,40,9.40
2006,10,04,02,41,9.40
2006,10,04,02,42,9.40
2006,10,04,02,43,9.40
2006,10,04,02,44,9.40
2006,10,04,02,45,9.40
2006,10,04,02,46,9.30
2006,10,04,02,47,9.30
2006,10,04,02,48,9.30
2006,10,04,02,49,9.30
2006,10,04,02,50,9.20
2006,10,04,02,51,9.20
2006,10,04,02,52,9.20
2006,10,04,02,53,9.20
2006,10,04,02,54,9.20
2006,10,04,02,55,9.20
2006,10,04,02,56,9.20
2006,10,04,02,57,9.20
2006,10,04,02,58,9.20
2006,10,04,02,59,9.20
2006,10,04,03,00,9.20
2006,10,04,03,01,9.20
2006,10,04,03,02,9.20
2006,10,04,03,03,9.20
2006,10,04,03,04,9.20
2006,10,04,03,05,9.20
2006,10,04,03,06,9.20
2006,10,04,03,07,9.20
2006,10,04,03,08,9.20
2006,10,04,03,09,9.20
2006,10,04,03,10,9.20
2006,10,04,03,11,9.20
2006,10,04,03,12,9.20
2006,10,04,03,13,9.20
2006,10,04,03,14,9.20
2006,10,04,03,15,9.10
2006,10,04,03,16,9.10
2006,10,04,03,17,9.10
2006,10,04,03,18,9.10
2006,10,04,03,19,9.00
2006,10,04,03,20,9.00
2006,10,04,03,21,9.00
2006,10,04,03,22,9.00
2006,10,04,03,23,9.00
2006,10,04,03,24,9.00
2006,10,04,03,25,9.00
2006,10,04,03,26,9.10
2006,10,04,03,27,9.10
2006,10,04,03,28,9.10
2006,10,04,03,29,9.10
2006,10,04,03,30,9.10
2006,10,04,03,31,9.20
2006,10,04,03,32,9.20
2006,10,04,03,33,9.20
2006,10,04,03,34,9.20
2006,10,04,03,35,9.20
2006,10,04,03,36,9.20
2006,10,04,03,37,9.20
2006,10,04,03,38,9.20
2006,10,04,03,39,9.10
2006,10,04,03,40,9.10
2006,10,04,03,41,9.10
2006,10,04,03,42,9.10
2006,10,04,03,43,9.10
2006,10,04,03,44,9.10
2006,10,04,03,45,9.00
2006,10,04,03,46,9.00
2006,10,04,03,47,9.00
2006,10,04,03,48,9.00
2006,10,04,03,49,9.00
2006,10,04,03,50,9.00
2006,10,04,03,51,9.10
2006,10,04,03,52,9.10
2006,10,04,03,53,9.10
2006,10,04,03,54,9.10
2006,10,04,03,55,9.10
2006,10,04,03,56,9.10
2006,10,04,03,57,9.10
2006,10,04,03,58,9.10
2006,10,04,03,59,9.00
2006,10,04,04,00,9.00
2006,10,04,04,01,9.00
2006,10,04,04,02,9.00
2006,10,04,04,03,9.00
2006,10,04,04,04,9.00
2006,10,04,04,05,9.00
2006,10,04,04,06,9.10
2006,10,04,04,07,9.10
2006,10,04,04,08,9.00
2006,10,04,04,09,9.00
2006,10,04,04,10,9.00
2006,10,04,04,11,9.00
2006,10,04,04,12,9.00
2006,10,04,04,13,8.90
2006,10,04,04,14,8.90
2006,10,04,04,15,8.90
2006,10,04,04,16,8.90
2006,10,04,04,17,8.80
2006,10,04,04,18,8.80
2006,10,04,04,19,8.70
2006,10,04,04,20,8.70
2006,10,04,04,21,8.70
2006,10,04,04,22,8.70
2006,10,04,04,23,8.70
2006,10,04,04,24,8.60
2006,10,04,04,25,8.60
2006,10,04,04,26,8.50
2006,10,04,04,27,8.50
2006,10,04,04,28,8.40
2006,10,04,04,29,8.40
2006,10,04,04,30,8.40
2006,10,04,04,31,8.40
2006,10,04,04,32,8.40
2006,10,04,04,33,8.40
2006,10,04,04,34,8.40
2006,10,04,04,35,8.40
2006,10,04,04,36,8.40
2006,10,04,04,37,8.40
2006,10,04,04,38,8.30
2006,10,04,04,39,8.30
2006,10,04,04,40,8.30
2006,10,04,04,41,8.20
2006,10,04,04,42,8.20
2006,10,04,04,43,8.20
2006,10,04,04,44,8.20
2006,10,04,04,45,8.10
2006,10,04,04,46,8.10
2006,10,04,04,47,8.10
2006,10,04,04,48,8.10
2006,10,04,04,49,8.10
2006,10,04,04,50,8.00
2006,10,04,04,51,8.00
2006,10,04,04,52,8.00
2006,10,04,04,53,7.90
2006,10,04,04,54,7.90
2006,10,04,04,55,7.80
2006,10,04,04,56,7.80
2006,10,04,04,57,7.80
2006,10,04,04,58,7.80
2006,10,04,04,59,7.70
2006,10,04,05,00,7.70
2006,10,04,05,01,7.70
2006,10,04,05,02,7.60
2006,10,04,05,03,7.60
2006,10,04,05,04,7.50
2006,10,04,05,05,7.50
2006,10,04,05,06,7.40
2006,10,04,05,07,7.40
2006,10,04,05,08,7.40
2006,10,04,05,09,7.30
2006,10,04,05,10,7.30
2006,10,04,05,11,7.30
2006,10,04,05,12,7.30
2006,10,04,05,13,7.30
2006,10,04,05,14,7.20
2006,10,04,05,15,7.20
2006,10,04,05,16,7.20
2006,10,04,05,17,7.20
2006,10,04,05,18,7.20
2006,10,04,05,19,7.20
2006,10,04,05,20,7.20
2006,10,04,05,21,7.20
2006,10,04,05,22,7.20
2006,10,04,05,23,7.10
2006,10,04,05,24,7.10
2006,10,04,05,25,7.10
2006,10,04,05,26,7.20
2006,10,04,05,27,7.20
2006,10,04,05,28,7.20
2006,10,04,05,29,7.20
2006,10,04,05,30,7.30
2006,10,04,05,31,7.30
2006,10,04,05,32,7.30
2006,10,04,05,33,7.30
2006,10,04,05,34,7.40
2006,10,04,05,35,7.40
2006,10,04,05,36,7.50
2006,10,04,05,37,7.50
2006,10,04,05,38,7.60
2006,10,04,05,39,7.70
2006,10,04,05,40,7.80
2006,10,04,05,41,7.80
2006,10,04,05,42,7.80
2006,10,04,05,43,7.80
2006,10,04,05,44,7.80
2006,10,04,05,45,7.80
2006,10,04,05,46,7.70
2006,10,04,05,47,7.70
2006,10,04,05,48,7.60
2006,10,04,05,49,7.60
2006,10,04,05,50,7.60
2006,10,04,05,51,7.50
2006,10,04,05,52,7.50
2006,10,04,05,53,7.40
2006,10,04,05,54,7.40
2006,10,04,05,55,7.30
2006,10,04,05,56,7.30
2006,10,04,05,57,7.30
2006,10,04,05,58,7.30
2006,10,04,05,59,7.30
2006,10,04,06,00,7.30
2006,10,04,06,01,7.30
2006,10,04,06,02,7.30
2006,10,04,06,03,7.30
2006,10,04,06,04,7.30
2006,10,04,06,05,7.30
2006,10,04,06,06,7.30
2006,10,04,06,07,7.30
2006,10,04,06,08,7.30
2006,10,04,06,09,7.30
2006,10,04,06,10,7.30
2006,10,04,06,11,7.30
2006,10,04,06,12,7.30
2006,10,04,06,13,7.30
2006,10,04,06,14,7.30
2006,10,04,06,15,7.30
2006,10,04,06,16,7.30
2006,10,04,06,17,7.30
2006,10,04,06,18,7.30
2006,10,04,06,19,7.30
2006,10,04,06,20,7.20
2006,10,04,06,21,7.20
2006,10,04,06,22,7.10
2006,10,04,06,23,7.10
2006,10,04,06,24,7.00
2006,10,04,06,25,7.00
2006,10,04,06,26,7.00
2006,10,04,06,27,7.00
2006,10,04,06,28,6.90
2006,10,04,06,29,6.90
2006,10,04,06,30,6.90
2006,10,04,06,31,6.90
2006,10,04,06,32,6.90
2006,10,04,06,33,6.90
2006,10,04,06,34,6.90
2006,10,04,06,35,6.90
2006,10,04,06,36,6.90
2006,10,04,06,37,6.90
2006,10,04,06,38,6.80
2006,10,04,06,39,6.80
2006,10,04,06,40,6.80
2006,10,04,06,41,6.80
2006,10,04,06,42,6.80
2006,10,04,06,43,6.80
2006,10,04,06,44,6.80
2006,10,04,06,45,6.80
2006,10,04,06,46,6.80
2006,10,04,06,47,6.80
2006,10,04,06,48,6.80
2006,10,04,06,49,6.80
2006,10,04,06,50,6.80
2006,10,04,06,51,6.80
2006,10,04,06,52,6.80
2006,10,04,06,53,6.80
2006,10,04,06,54,6.90
2006,10,04,06,55,6.90
2006,10,04,06,56,6.90
2006,10,04,06,57,7.00
2006,10,04,06,58,7.00
2006,10,04,06,59,7.00
2006,10,04,07,00,7.10
2006,10,04,07,01,7.10
2006,10,04,07,02,7.10
2006,10,04,07,03,7.10
2006,10,04,07,04,7.10
2006,10,04,07,05,7.10
2006,10,04,07,06,7.10
2006,10,04,07,07,7.10
2006,10,04,07,08,7.00
2006,10,04,07,09,7.00
2006,10,04,07,10,7.00
2006,10,04,07,11,7.00
2006,10,04,07,12,7.00
2006,10,04,07,13,7.00
2006,10,04,07,14,7.10
2006,10,04,07,15,7.10
2006,10,04,07,16,7.10
2006,10,04,07,17,7.10
2006,10,04,07,18,7.00
2006,10,04,07,19,7.00
2006,10,04,07,20,7.00
2006,10,04,07,21,7.00
2006,10,04,07,22,7.00
2006,10,04,07,23,7.00
2006,10,04,07,24,7.00
2006,10,04,07,25,7.00
2006,10,04,07,26,7.00
2006,10,04,07,27,7.00
2006,10,04,07,28,7.00
2006,10,04,07,29,6.90
2006,10,04,07,30,6.90
2006,10,04,07,31,6.90
2006,10,04,07,32,6.90
2006,10,04,07,33,6.90
2006,10,04,07,34,6.90
2006,10,04,07,35,6.90
2006,10,04,07,36,6.90
2006,10,04,07,37,6.90
2006,10,04,07,38,6.90
2006,10,04,07,39,6.90
2006,10,04,07,40,6.90
2006,10,04,07,41,6.90
2006,10,04,07,42,6.90
2006,10,04,07,43,6.90
2006,10,04,07,44,7.00
2006,10,04,07,45,7.00
2006,10,04,07,46,7.00
2006,10,04,07,47,7.00
2006,10,04,07,48,7.00
2006,10,04,07,49,7.00
2006,10,04,07,50,7.00
2006,10,04,07,51,7.00
2006,10,04,07,52,7.00
2006,10,04,07,53,7.00
2006,10,04,07,54,7.00
2006,10,04,07,55,7.00
2006,10,04,07,56,7.00
2006,10,04,07,57,7.00
2006,10,04,07,58,7.00
2006,10,04,07,59,7.00
2006,10,04,08,00,7.10
2006,10,04,08,01,7.10
2006,10,04,08,02,7.20
2006,10,04,08,03,7.20
2006,10,04,08,04,7.30
2006,10,04,08,05,7.30
2006,10,04,08,06,7.30
2006,10,04,08,07,7.30
2006,10,04,08,08,7.30
2006,10,04,08,09,7.40
2006,10,04,08,10,7.50
2006,10,04,08,11,7.60
2006,10,04,08,12,7.70
2006,10,04,08,13,7.70
2006,10,04,08,14,7.80
2006,10,04,08,15,7.90
2006,10,04,08,16,8.00
2006,10,04,08,17,8.10
2006,10,04,08,18,8.20
2006,10,04,08,19,8.40
2006,10,04,08,20,8.50
2006,10,04,08,21,8.50
2006,10,04,08,22,8.70
2006,10,04,08,23,8.70
2006,10,04,08,24,8.80
2006,10,04,08,25,8.90
2006,10,04,08,26,9.00
2006,10,04,08,27,9.00
2006,10,04,08,28,9.10
2006,10,04,08,29,9.10
2006,10,04,08,30,9.20
2006,10,04,08,31,9.20
2006,10,04,08,32,9.20
2006,10,04,08,33,9.20
2006,10,04,08,34,9.20
2006,10,04,08,35,9.20
2006,10,04,08,36,9.20
2006,10,04,08,37,9.20
2006,10,04,08,38,9.20
2006,10,04,08,39,9.30
2006,10,04,08,40,9.40
2006,10,04,08,41,9.40
2006,10,04,08,42,9.50
2006,10,04,08,43,9.60
2006,10,04,08,44,9.60
2006,10,04,08,45,9.70
2006,10,04,08,46,9.70
2006,10,04,08,47,9.80
2006,10,04,08,48,9.90
2006,10,04,08,49,10.00
2006,10,04,08,50,10.10
2006,10,04,08,51,10.20
2006,10,04,08,52,10.40
2006,10,04,08,53,10.50
2006,10,04,08,54,10.60
2006,10,04,08,55,10.60
2006,10,04,08,56,10.70
2006,10,04,08,57,10.80
2006,10,04,08,58,10.90
2006,10,04,08,59,10.90
2006,10,04,09,00,11.00
2006,10,04,09,01,11.10
2006,10,04,09,02,11.10
2006,10,04,09,03,11.10
2006,10,04,09,04,11.20
2006,10,04,09,05,11.30
2006,10,04,09,06,11.30
2006,10,04,09,07,11.40
2006,10,04,09,08,11.40
2006,10,04,09,09,11.40
2006,10,04,09,10,11.40
2006,10,04,09,11,11.50
2006,10,04,09,12,11.60
2006,10,04,09,13,11.60
2006,10,04,09,14,11.60
2006,10,04,09,15,11.60
2006,10,04,09,16,11.60
2006,10,04,09,17,11.60
2006,10,04,09,18,11.60
2006,10,04,09,19,11.70
2006,10,04,09,20,11.70
2006,10,04,09,21,11.70
2006,10,04,09,22,11.80
2006,10,04,09,23,11.80
2006,10,04,09,24,11.80
2006,10,04,09,25,11.80
2006,10,04,09,26,11.80
2006,10,04,09,27,11.80
2006,10,04,09,28,11.90
2006,10,04,09,29,11.90
2006,10,04,09,30,11.90
2006,10,04,09,31,11.90
2006,10,04,09,32,12.00
2006,10,04,09,33,12.00
2006,10,04,09,34,12.00
2006,10,04,09,35,12.00
2006,10,04,09,36,12.10
2006,10,04,09,37,12.10
2006,10,04,09,38,12.10
2006,10,04,09,39,12.10
2006,10,04,09,40,12.20
2006,10,04,09,41,12.20
2006,10,04,09,42,12.20
2006,10,04,09,43,12.20
2006,10,04,09,44,12.30
2006,10,04,09,45,12.30
2006,10,04,09,46,12.30
2006,10,04,09,47,12.30
2006,10,04,09,48,12.30
2006,10,04,09,49,12.40
2006,10,04,09,50,12.40
2006,10,04,09,51,12.40
2006,10,04,09,52,12.50
2006,10,04,09,53,12.50
2006,10,04,09,54,12.50
2006,10,04,09,55,12.50
2006,10,04,09,56,12.60
2006,10,04,09,57,12.60
2006,10,04,09,58,12.60
2006,10,04,09,59,12.70
2006,10,04,10,00,12.70
2006,10,04,10,01,12.70
2006,10,04,10,02,12.80
2006,10,04,10,03,12.80
2006,10,04,10,04,12.90
2006,10,04,10,05,13.00
2006,10,04,10,06,13.00
2006,10,04,10,07,13.10
2006,10,04,10,08,13.10
2006,10,04,10,09,13.20
2006,10,04,10,10,13.20
2006,10,04,10,11,13.30
2006,10,04,10,12,13.30
2006,10,04,10,13,13.30
2006,10,04,10,14,13.30
2006,10,04,10,15,13.40
2006,10,04,10,16,13.40
2006,10,04,10,17,13.50
2006,10,04,10,18,13.50
2006,10,04,10,19,13.50
2006,10,04,10,20,13.60
2006,10,04,10,21,13.60
2006,10,04,10,22,13.50
2006,10,04,10,23,13.50
2006,10,04,10,24,13.50
2006,10,04,10,25,13.50
2006,10,04,10,26,13.50
2006,10,04,10,27,13.50
2006,10,04,10,28,13.50
2006,10,04,10,29,13.60
2006,10,04,10,30,13.60
2006,10,04,10,31,13.60
2006,10,04,10,32,13.60
2006,10,04,10,33,13.50
2006,10,04,10,34,13.50
2006,10,04,10,35,13.50
2006,10,04,10,36,13.50
2006,10,04,10,37,13.50
2006,10,04,10,38,13.50
2006,10,04,10,39,13.60
2006,10,04,10,40,13.60
2006,10,04,10,41,13.60
2006,10,04,10,42,13.50
2006,10,04,10,43,13.50
2006,10,04,10,44,13.50
2006,10,04,10,45,13.50
2006,10,04,10,46,13.50
2006,10,04,10,47,13.60
2006,10,04,10,48,13.60
2006,10,04,10,49,13.60
2006,10,04,10,50,13.70
2006,10,04,10,51,13.70
2006,10,04,10,52,13.80
2006,10,04,10,53,13.80
2006,10,04,10,54,13.90
2006,10,04,10,55,14.00
2006,10,04,10,56,14.00
2006,10,04,10,57,14.10
2006,10,04,10,58,14.20
2006,10,04,10,59,14.20
2006,10,04,11,00,14.20
2006,10,04,11,01,14.20
2006,10,04,11,02,14.20
2006,10,04,11,03,14.20
2006,10,04,11,04,14.30
2006,10,04,11,05,14.40
2006,10,04,11,06,14.40
2006,10,04,11,07,14.40
2006,10,04,11,08,14.40
2006,10,04,11,09,14.40
2006,10,04,11,10,14.30
2006,10,04,11,11,14.30
2006,10,04,11,12,14.30
2006,10,04,11,13,14.30
2006,10,04,11,14,14.40
2006,10,04,11,15,14.40
2006,10,04,11,16,14.40
2006,10,04,11,17,14.40
2006,10,04,11,18,14.40
2006,10,04,11,19,14.40
2006,10,04,11,20,14.40
2006,10,04,11,21,14.30
2006,10,04,11,22,14.40
2006,10,04,11,23,14.40
2006,10,04,11,24,14.40
2006,10,04,11,25,14.50
2006,10,04,11,26,14.60
2006,10,04,11,27,14.70
2006,10,04,11,28,14.70
2006,10,04,11,29,14.80
2006,10,04,11,30,14.80
2006,10,04,11,31,14.80
2006,10,04,11,32,14.80
2006,10,04,11,33,14.80
2006,10,04,11,34,14.80
2006,10,04,11,35,14.80
2006,10,04,11,36,14.80
2006,10,04,11,37,14.80
2006,10,04,11,38,14.80
2006,10,04,11,39,14.80
2006,10,04,11,40,14.80
2006,10,04,11,41,14.80
2006,10,04,11,42,14.80
2006,10,04,11,43,14.80
2006,10,04,11,44,14.80
2006,10,04,11,45,14.80
2006,10,04,11,46,14.80
2006,10,04,11,47,14.80
2006,10,04,11,48,14.80
2006,10,04,11,49,14.80
2006,10,04,11,50,14.80
2006,10,04,11,51,14.90
2006,10,04,11,52,14.90
2006,10,04,11,53,15.00
2006,10,04,11,54,15.00
2006,10,04,11,55,15.00
2006,10,04,11,56,15.10
2006,10,04,11,57,15.10
2006,10,04,11,58,15.10
2006,10,04,11,59,15.20
2006,10,04,12,00,15.20
2006,10,04,12,01,15.30
2006,10,04,12,02,15.30
2006,10,04,12,03,15.40
2006,10,04,12,04,15.50
2006,10,04,12,05,15.50
2006,10,04,12,06,15.50
2006,10,04,12,07,15.60
2006,10,04,12,08,15.60
2006,10,04,12,09,15.60
2006,10,04,12,10,15.60
2006,10,04,12,11,15.60
2006,10,04,12,12,15.60
2006,10,04,12,13,15.60
2006,10,04,12,14,15.60
2006,10,04,12,15,15.60
2006,10,04,12,16,15.60
2006,10,04,12,17,15.60
2006,10,04,12,18,15.50
2006,10,04,12,19,15.50
2006,10,04,12,20,15.50
2006,10,04,12,21,15.40
2006,10,04,12,22,15.40
2006,10,04,12,23,15.50
2006,10,04,12,24,15.50
2006,10,04,12,25,15.50
2006,10,04,12,26,15.60
2006,10,04,12,27,15.60
2006,10,04,12,28,15.70
2006,10,04,12,29,15.70
2006,10,04,12,30,15.80
2006,10,04,12,31,15.80
2006,10,04,12,32,15.80
2006,10,04,12,33,15.80
2006,10,04,12,34,15.80
2006,10,04,12,35,15.80
2006,10,04,12,36,15.80
2006,10,04,12,37,15.80
2006,10,04,12,38,15.80
2006,10,04,12,39,15.90
2006,10,04,12,40,15.90
2006,10,04,12,41,15.90
2006,10,04,12,42,15.90
2006,10,04,12,43,15.90
2006,10,04,12,44,16.00
2006,10,04,12,45,16.10
2006,10,04,12,46,16.10
2006,10,04,12,47,16.10
2006,10,04,12,48,16.10
2006,10,04,12,49,16.10
2006,10,04,12,50,16.10
2006,10,04,12,51,16.10
2006,10,04,12,52,16.10
2006,10,04,12,53,16.10
2006,10,04,12,54,16.10
2006,10,04,12,55,16.10
2006,10,04,12,56,16.10
2006,10,04,12,57,16.10
2006,10,04,12,58,16.20
2006,10,04,12,59,16.20
2006,10,04,13,00,16.30
2006,10,04,13,01,16.30
2006,10,04,13,02,16.30
2006,10,04,13,03,16.30
2006,10,04,13,04,16.30
2006,10,04,13,05,16.30
2006,10,04,13,06,16.30
2006,10,04,13,07,16.20
2006,10,04,13,08,16.10
2006,10,04,13,09,16.10
2006,10,04,13,10,16.10
2006,10,04,13,11,16.10
2006,10,04,13,12,16.10
2006,10,04,13,13,16.10
2006,10,04,13,14,16.10
2006,10,04,13,15,16.20
2006,10,04,13,16,16.20
2006,10,04,13,17,16.30
2006,10,04,13,18,16.30
2006,10,04,13,19,16.30
2006,10,04,13,20,16.30
2006,10,04,13,21,16.30
2006,10,04,13,22,16.20
2006,10,04,13,23,16.20
2006,10,04,13,24,16.30
2006,10,04,13,25,16.30
2006,10,04,13,26,16.30
2006,10,04,13,27,16.30
2006,10,04,13,28,16.30
2006,10,04,13,29,16.30
2006,10,04,13,30,16.40
2006,10,04,13,31,16.40
2006,10,04,13,32,16.40
2006,10,04,13,33,16.40
2006,10,04,13,34,16.40
2006,10,04,13,35,16.40
2006,10,04,13,36,16.30
2006,10,04,13,37,16.20
2006,10,04,13,38,16.20
2006,10,04,13,39,16.10
2006,10,04,13,40,16.10
2006,10,04,13,41,16.10
2006,10,04,13,42,16.10
2006,10,04,13,43,16.10
2006,10,04,13,44,16.10
2006,10,04,13,45,16.20
2006,10,04,13,46,16.30
2006,10,04,13,47,16.40
2006,10,04,13,48,16.40
2006,10,04,13,49,16.40
2006,10,04,13,50,16.40
2006,10,04,13,51,16.40
2006,10,04,13,52,16.40
2006,10,04,13,53,16.40
2006,10,04,13,54,16.40
2006,10,04,13,55,16.40
2006,10,04,13,56,16.30
2006,10,04,13,57,16.30
2006,10,04,13,58,16.30
2006,10,04,13,59,16.30
2006,10,04,14,00,16.30
2006,10,04,14,01,16.30
2006,10,04,14,02,16.40
2006,10,04,14,03,16.40
2006,10,04,14,04,16.40
2006,10,04,14,05,16.30
2006,10,04,14,06,16.20
2006,10,04,14,07,16.20
2006,10,04,14,08,16.10
2006,10,04,14,09,16.10
2006,10,04,14,10,16.10
2006,10,04,14,11,16.20
2006,10,04,14,12,16.20
2006,10,04,14,13,16.30
2006,10,04,14,14,16.30
2006,10,04,14,15,16.30
2006,10,04,14,16,16.40
2006,10,04,14,17,16.50
2006,10,04,14,18,16.60
2006,10,04,14,19,16.70
2006,10,04,14,20,16.70
2006,10,04,14,21,16.70
2006,10,04,14,22,16.80
2006,10,04,14,23,16.90
2006,10,04,14,24,16.90
2006,10,04,14,25,16.90
2006,10,04,14,26,17.00
2006,10,04,14,27,16.90
2006,10,04,14,28,16.90
2006,10,04,14,29,16.90
2006,10,04,14,30,17.00
2006,10,04,14,31,17.00
2006,10,04,14,32,17.00
2006,10,04,14,33,17.00
2006,10,04,14,34,16.80
2006,10,04,14,35,16.80
2006,10,04,14,36,16.80
2006,10,04,14,37,16.80
2006,10,04,14,38,16.90
2006,10,04,14,39,17.00
2006,10,04,14,40,17.00
2006,10,04,14,41,17.10
2006,10,04,14,42,17.20
2006,10,04,14,43,17.30
2006,10,04,14,44,17.30
2006,10,04,14,45,17.30
2006,10,04,14,46,17.30
2006,10,04,14,47,17.30
2006,10,04,14,48,17.30
2006,10,04,14,49,17.30
2006,10,04,14,50,17.30
2006,10,04,14,51,17.20
2006,10,04,14,52,17.20
2006,10,04,14,53,17.20
2006,10,04,14,54,17.20
2006,10,04,14,55,17.20
2006,10,04,14,56,17.20
2006,10,04,14,57,17.20
2006,10,04,14,58,17.10
2006,10,04,14,59,17.10
2006,10,04,15,00,17.20
2006,10,04,15,01,17.20
2006,10,04,15,02,17.30
2006,10,04,15,03,17.30
2006,10,04,15,04,17.40
2006,10,04,15,05,17.40
2006,10,04,15,06,17.50
2006,10,04,15,07,17.50
2006,10,04,15,08,17.60
2006,10,04,15,09,17.70
2006,10,04,15,10,17.70
2006,10,04,15,11,17.80
2006,10,04,15,12,17.80
2006,10,04,15,13,17.80
2006,10,04,15,14,17.80
2006,10,04,15,15,17.80
2006,10,04,15,16,17.80
2006,10,04,15,17,17.80
2006,10,04,15,18,17.70
2006,10,04,15,19,17.70
2006,10,04,15,20,17.70
2006,10,04,15,21,17.80
2006,10,04,15,22,17.80
2006,10,04,15,23,17.90
2006,10,04,15,24,17.80
2006,10,04,15,25,17.80
2006,10,04,15,26,17.80
2006,10,04,15,27,17.70
2006,10,04,15,28,17.70
2006,10,04,15,29,17.70
2006,10,04,15,30,17.60
2006,10,04,15,31,17.60
2006,10,04,15,32,17.60
2006,10,04,15,33,17.70
2006,10,04,15,34,17.70
2006,10,04,15,35,17.80
2006,10,04,15,36,17.80
2006,10,04,15,37,17.90
2006,10,04,15,38,17.90
2006,10,04,15,39,17.90
2006,10,04,15,40,17.90
2006,10,04,15,41,17.90
2006,10,04,15,42,17.90
2006,10,04,15,43,18.00
2006,10,04,15,44,18.10
2006,10,04,15,45,18.10
2006,10,04,15,46,18.10
2006,10,04,15,47,18.10
2006,10,04,15,48,18.10
2006,10,04,15,49,18.10
2006,10,04,15,50,18.20
2006,10,04,15,51,18.20
2006,10,04,15,52,18.20
2006,10,04,15,53,18.30
2006,10,04,15,54,18.30
2006,10,04,15,55,18.40
2006,10,04,15,56,18.40
2006,10,04,15,57,18.40
2006,10,04,15,58,18.40
2006,10,04,15,59,18.40
2006,10,04,16,00,18.40
2006,10,04,16,01,18.40
2006,10,04,16,02,18.40
2006,10,04,16,03,18.50
2006,10,04,16,04,18.50
2006,10,04,16,05,18.60
2006,10,04,16,06,18.60
2006,10,04,16,07,18.60
2006,10,04,16,08,18.60
2006,10,04,16,09,18.70
2006,10,04,16,10,18.80
2006,10,04,16,11,18.90
2006,10,04,16,12,18.90
2006,10,04,16,13,18.90
2006,10,04,16,14,18.90
2006,10,04,16,15,18.90
2006,10,04,16,16,18.90
2006,10,04,16,17,18.90
2006,10,04,16,18,19.00
2006,10,04,16,19,19.10
2006,10,04,16,20,19.10
2006,10,04,16,21,19.20
2006,10,04,16,22,19.30
2006,10,04,16,23,19.30
2006,10,04,16,24,19.40
2006,10,04,16,25,19.30
2006,10,04,16,26,19.30
2006,10,04,16,27,19.30
2006,10,04,16,28,19.40
2006,10,04,16,29,19.40
2006,10,04,16,30,19.40
2006,10,04,16,31,19.40
2006,10,04,16,32,19.30
2006,10,04,16,33,19.30
2006,10,04,16,34,19.30
2006,10,04,16,35,19.30
2006,10,04,16,36,19.30
2006,10,04,16,37,19.40
2006,10,04,16,38,19.40
2006,10,04,16,39,19.40
2006,10,04,16,40,19.40
2006,10,04,16,41,19.40
2006,10,04,16,42,19.50
2006,10,04,16,43,19.50
2006,10,04,16,44,19.60
2006,10,04,16,45,19.60
2006,10,04,16,46,19.70
2006,10,04,16,47,19.70
2006,10,04,16,48,19.70
2006,10,04,16,49,19.70
2006,10,04,16,50,19.70
2006,10,04,16,51,19.70
2006,10,04,16,52,19.70
2006,10,04,16,53,19.60
2006,10,04,16,54,19.60
2006,10,04,16,55,19.60
2006,10,04,16,56,19.60
2006,10,04,16,57,19.60
2006,10,04,16,58,19.50
2006,10,04,16,59,19.50
2006,10,04,17,00,19.50
2006,10,04,17,01,19.60
2006,10,04,17,02,19.60
2006,10,04,17,03,19.60
2006,10,04,17,04,19.60
2006,10,04,17,05,19.70
2006,10,04,17,06,19.70
2006,10,04,17,07,19.70
2006,10,04,17,08,19.80
2006,10,04,17,09,19.70
2006,10,04,17,10,19.70
2006,10,04,17,11,19.60
2006,10,04,17,12,19.60
2006,10,04,17,13,19.60
2006,10,04,17,14,19.50
2006,10,04,17,15,19.50
2006,10,04,17,16,19.50
2006,10,04,17,17,19.40
2006,10,04,17,18,19.40
2006,10,04,17,19,19.40
2006,10,04,17,20,19.40
2006,10,04,17,21,19.40
2006,10,04,17,22,19.40
2006,10,04,17,23,19.40
2006,10,04,17,24,19.40
2006,10,04,17,25,19.30
2006,10,04,17,26,19.30
2006,10,04,17,27,19.30
2006,10,04,17,28,19.20
2006,10,04,17,29,19.20
2006,10,04,17,30,19.10
2006,10,04,17,31,19.10
2006,10,04,17,32,19.00
2006,10,04,17,33,18.90
2006,10,04,17,34,18.90
2006,10,04,17,35,18.80
2006,10,04,17,36,18.80
2006,10,04,17,37,18.70
2006,10,04,17,38,18.70
2006,10,04,17,39,18.60
2006,10,04,17,40,18.60
2006,10,04,17,41,18.50
2006,10,04,17,42,18.50